[[{"header":{"parameterUnit":"m.s-1","parameterCategory":1,"la1":30.2991,"la2":30.254,"lo1":-89.0895,"lo2":-89.0444,"dy":0.0017,"dx":0.0017,"nx":28,"ny":28,"refTime":"2024-10-05T21:00:00:Z","depth":0,"parameterNumber":2,"parameterNumberName":"U-component_of_WINDS"},"data":[0,0,0,0,0,0,0,0,0,0,0,0,0,0,0,0,0,0,0,0,0,0,0,0,0,0,0,0,0,0,0,0,0,0,0,0,0,0,0,0,0,0,0,0,0,0,0,0,0,0,0,0,0,0,0,0,0,0,-3.433,-3.433,0,-3.4302,-3.4302,-3.4301,-3.4105,-3.41,-3.4095,-3.4091,-3.4068,-3.4072,-3.4076,0,0,0,0,0,0,0,0,0,0,0,0,0,-3.4221,-3.4224,-3.433,-3.433,-3.433,-3.4302,-3.4302,-3.4301,-3.4106,-3.41,-3.4094,-3.4089,-3.4067,-3.4072,-3.4076,0,0,0,0,0,0,0,0,0,0,0,0,0,-3.4238,-3.4225,-3.433,-3.4229,-3.4219,-3.4302,-3.4302,-3.4301,-3.4107,-3.41,-3.4093,-3.4086,-3.4066,-3.4071,-3.4077,-3.4258,0,0,-3.4095,-3.4097,0,0,0,0,0,0,0,0,-3.4238,-3.4243,-3.4244,-3.4236,-3.4225,-3.4199,-3.4254,-3.4287,-3.4109,-3.415,-3.4091,-3.4082,-3.4118,-3.4119,-3.413,-3.4256,-3.4256,-3.4095,-3.4099,-3.4101,-3.4103,0,0,0,0,0,0,0,-3.4237,-3.4243,-3.4319,-3.4244,-3.4233,-3.4186,-3.4181,-3.426,-3.4175,-3.4146,-3.4131,-3.413,-3.4112,-3.4125,-3.4128,-3.4255,-3.4095,-3.41,-3.4104,-3.4106,-3.4529,-3.4536,0,0,0,0,0,0,-3.4249,-3.4243,-3.432,-3.4318,-3.4214,-3.4194,-3.4188,-3.4215,-3.4174,-3.416,-3.4137,-3.4121,-3.4119,-3.4122,-3.4127,-3.4335,-3.4101,-3.4107,-3.411,-3.4521,-3.453,-3.4539,0,0,0,0,0,0,-3.4247,-3.4258,-3.4321,-3.4277,-3.4281,-3.4203,-3.4236,-3.4218,-3.4231,-3.4167,-3.4151,-3.4165,-3.4113,-3.4118,-3.4226,-3.4332,-3.4109,-3.4115,-3.4512,-3.4524,-3.4535,-3.4754,0,0,0,0,0,0,-3.4245,-3.4258,-3.4325,-3.428,-3.4284,-3.442,-3.4242,-3.4223,-3.4241,-3.4221,-3.4189,-3.4177,-3.4108,-3.4218,-3.4232,-3.4336,-3.4119,-3.4502,-3.4517,-3.4531,-3.4737,-3.4772,-3.4801,0,0,0,0,0,-3.4242,-3.4389,-3.4329,-3.4339,-3.4365,-3.4426,-3.4429,-3.4344,-3.425,-3.4317,-3.4276,-3.4178,-3.4318,-3.4231,-3.4245,-3.4352,-3.4495,-3.4513,-3.453,-3.4723,-3.4765,-3.4801,0,0,0,0,0,0,-3.4451,-3.4381,-3.4314,-3.4451,-3.4446,-3.4393,-3.4475,-3.4392,-3.4415,-3.4396,-3.4291,-3.4286,-3.441,-3.4391,-3.4296,-3.4524,-3.439,-3.4411,-3.4532,-3.4571,-3.4603,-3.4605,-3.4124,0,0,0,0,0,-3.4512,-3.4566,-3.4503,-3.463,-3.463,-3.4554,-3.4577,-3.4512,-3.4503,-3.4501,-3.4467,-3.4465,-3.4508,-3.4538,-3.4574,-3.4733,-3.4724,-3.4814,-3.4846,-3.4873,-3.4892,-3.4976,-3.5015,-3.4596,-3.4596,-3.4595,0,0,-3.4641,-3.4609,-3.465,-3.4671,-3.4659,-3.4719,-3.4553,-3.4623,-3.4667,-3.4512,-3.4611,-3.4587,-3.4577,-3.4711,-3.4769,-3.47,-3.5006,-3.4895,-3.4917,-3.4922,-3.4998,-3.5037,-3.5073,-3.4608,-3.4605,-3.4604,0,0,-3.4905,-3.4887,-3.499,-3.4981,-3.4965,-3.4913,-3.4939,-3.4898,-3.4876,-3.4973,-3.4858,-3.491,-3.4986,-3.4984,-3.4993,-3.5257,-3.5168,-3.5272,-3.544,-3.5522,-3.5555,-3.5584,-3.5679,-3.5714,-3.5291,-3.5292,-3.5292,0,-3.5068,-3.515,-3.5054,-3.5131,-3.5144,-3.5005,-3.511,-3.5107,-3.5105,-3.5119,-3.5041,-3.5133,-3.5117,-3.5249,-3.5313,-3.5325,-3.5352,-3.5275,-3.5558,-3.5586,-3.5611,-3.5701,-3.5737,-3.5304,-3.5303,-3.5302,-3.53,0,-3.5351,-3.541,-3.5496,-3.5495,-3.5518,-3.5609,-3.5529,-3.5564,-3.5497,-3.5454,-3.5556,-3.5531,-3.556,-3.5586,-3.5523,-3.571,-3.5667,-3.5576,-3.5438,-3.5666,-3.5748,-3.5781,-3.5323,-3.5318,-3.5314,-3.5311,0,0,-3.5746,-3.569,-3.5723,-3.5721,-3.5693,-3.5738,-3.5824,-3.585,-3.5882,-3.5886,-3.5956,-3.6024,-3.5938,-3.5949,-3.5884,-3.5956,-3.6168,-3.5855,-3.5853,-3.5915,-3.6373,-3.6443,-3.6484,-3.6109,-3.6115,-3.612,-3.6374,0,-3.6,-3.614,-3.6056,-3.621,-3.6264,-3.6133,-3.6207,-3.62,-3.6162,-3.6205,-3.6163,-3.6213,-3.6097,-3.6102,-3.6168,-3.6128,-3.6259,-3.6109,-3.6175,-3.6178,-3.6181,-3.6527,-3.66,-3.6842,-3.6406,-3.6411,-3.6415,0,-3.6314,-3.6329,-3.6488,-3.6449,-3.6469,-3.6537,-3.6554,-3.6596,-3.6585,-3.6553,-3.6565,-3.6482,-3.6565,-3.6429,-3.6543,-3.6443,-3.6465,-3.645,-3.6458,-3.6461,-3.6311,-3.654,-3.6916,-3.6953,-3.6465,-3.6461,-3.6457,0,-3.6587,-3.6647,-3.6749,-3.6752,-3.671,-3.6761,-3.6746,-3.6727,-3.6749,-3.6765,-3.6777,-3.6804,-3.6819,-3.6843,-3.677,-3.6678,-3.6895,-3.6753,-3.6872,-3.6874,-3.6923,-3.6921,-3.7309,-3.6938,-3.6937,-3.6937,-3.6936,0,-3.6879,-3.6982,-3.6871,-3.6935,-3.7046,-3.695,-3.7063,-3.7035,-3.702,-3.7076,-3.6966,-3.7022,-3.6922,-3.697,-3.6914,-3.7017,-3.7025,-3.7002,-3.6986,-3.7012,-3.7015,-3.7026,-3.7007,-3.6946,-3.6944,-3.6942,-3.6941,0,-3.7203,-3.7133,-3.7236,-3.7187,-3.7177,-3.7261,-3.722,-3.7278,-3.7232,-3.7306,-3.7318,-3.7248,-3.7297,-3.7227,-3.727,-3.7232,-3.7375,-3.7333,-3.7378,-3.7366,-3.7489,-3.7478,-3.7897,-3.7948,-3.7545,-3.7548,-3.7552,0,-3.7394,-3.7469,-3.7428,-3.7457,-3.7448,-3.7496,-3.7516,-3.7425,-3.7452,-3.7445,-3.7504,-3.7544,-3.757,-3.7656,-3.7611,-3.7643,-3.7602,-3.7747,-3.7606,-3.763,-3.7605,-3.7601,-3.7609,-3.7776,-3.7781,-3.7785,-3.7788,0,-3.774,-3.7702,-3.7734,-3.7755,-3.7782,-3.7795,-3.78,-3.7831,-3.7735,-3.7771,-3.7818,-3.7839,-3.7882,-3.7924,-3.7944,-3.7931,-3.7845,-3.7832,-3.7861,-3.7889,-3.7912,-3.7901,-3.7456,-3.7823,-3.782,-3.7817,-3.7815,-3.7814,-3.8003,-3.8064,-3.8044,-3.8084,-3.8078,-3.8085,-3.8136,-3.8097,-3.8135,-3.8161,-3.8105,-3.8168,-3.8156,-3.8174,-3.8171,-3.822,-3.8157,-3.8199,-3.821,-3.8222,-3.8241,-3.7904,-3.8223,-3.8222,-3.8221,-3.822,-3.8219,0,-3.8343,-3.8324,-3.8362,-3.8371,-3.8404,-3.8317,-3.8318,-3.8352,-3.8407,-3.8402,-3.843,-3.8486,-3.8526,-3.8484,-3.8516,-3.8564,-3.8525,-3.8575,-3.8571,-3.857,-3.8295,-3.8267,-3.8606,-3.8606,-3.8606,-3.8606,-3.8606,-3.8605,-3.8524,-3.8623,-3.8583,-3.8677,-3.8657,-3.8716,-3.8724,-3.8731,-3.8726,-3.8793,-3.8824,-3.8796,-3.8777,-3.8806,-3.884,-3.8827,-3.8844,-3.8909,-3.8882,-3.8627,-3.8589,-3.8553,-3.8525,-3.8913,-3.8914,-3.9152,-3.9154,-3.9156]},{"header":{"parameterUnit":"m.s-1","parameterCategory":1,"la1":30.2991,"la2":30.254,"lo1":-89.0895,"lo2":-89.0444,"dy":0.0017,"dx":0.0017,"nx":28,"ny":28,"refTime":"2024-10-05T21:00:00:Z","depth":0,"parameterNumber":3,"parameterNumberName":"V-component_of_WINDS"},"data":[0,0,0,0,0,0,0,0,0,0,0,0,0,0,0,0,0,0,0,0,0,0,0,0,0,0,0,0,0,0,0,0,0,0,0,0,0,0,0,0,0,0,0,0,0,0,0,0,0,0,0,0,0,0,0,0,0,0,0.0457,0.0457,0,0.0385,0.0384,0.0384,0.0355,0.0356,0.0356,0.0356,0.0282,0.028,0.0278,0,0,0,0,0,0,0,0,0,0,0,0,0,0.0572,0.057,0.0457,0.0456,0.0456,0.0385,0.0384,0.0383,0.0355,0.0356,0.0356,0.0356,0.0283,0.028,0.0278,0,0,0,0,0,0,0,0,0,0,0,0,0,0.0513,0.0569,0.0458,0.0433,0.043,0.0386,0.0384,0.0383,0.0355,0.0356,0.0356,0.0356,0.0284,0.028,0.0277,0.0251,0,0,0.0267,0.0266,0,0,0,0,0,0,0,0,0.0517,0.0509,0.0438,0.0435,0.0431,0.038,0.0398,0.0339,0.0355,0.0384,0.0356,0.0356,0.0314,0.0309,0.0294,0.0248,0.0245,0.0267,0.0265,0.0264,0.0263,0,0,0,0,0,0,0,0.0521,0.0512,0.0429,0.0437,0.0433,0.0426,0.0418,0.0386,0.0348,0.0381,0.0379,0.0371,0.0313,0.0298,0.0292,0.0244,0.0267,0.0264,0.0262,0.0261,0.0174,0.0173,0,0,0,0,0,0,0.0529,0.0516,0.0431,0.0427,0.0476,0.0424,0.0415,0.0396,0.0348,0.0342,0.0371,0.037,0.0303,0.0296,0.029,0.0256,0.0264,0.0261,0.0259,0.0174,0.0174,0.0173,0,0,0,0,0,0,0.0531,0.0521,0.0434,0.047,0.0459,0.0422,0.0401,0.0394,0.0379,0.0341,0.0334,0.0362,0.0303,0.0294,0.0261,0.0254,0.0259,0.0256,0.0175,0.0174,0.0173,0.019,0,0,0,0,0,0,0.0535,0.0522,0.0512,0.047,0.0457,0.0407,0.04,0.0393,0.0374,0.0372,0.0331,0.0324,0.0302,0.0266,0.0258,0.0249,0.0254,0.0175,0.0174,0.0174,0.019,0.019,0.019,0,0,0,0,0,0.0539,0.0519,0.0511,0.0501,0.0443,0.0406,0.0398,0.0374,0.0373,0.0362,0.0338,0.0325,0.0256,0.0263,0.0254,0.0244,0.0175,0.0174,0.0174,0.019,0.019,0.019,0,0,0,0,0,0,0.056,0.0513,0.0504,0.047,0.0443,0.0401,0.0387,0.0375,0.0346,0.0346,0.0316,0.0307,0.0277,0.0257,0.0266,0.0217,0.0215,0.0212,0.0231,0.023,0.0231,0.0235,0.0251,0,0,0,0,0,0.0561,0.0535,0.0495,0.0469,0.0456,0.0424,0.0407,0.0391,0.0361,0.0349,0.0322,0.0293,0.0265,0.0247,0.0219,0.0188,0.0178,0.0176,0.0177,0.0177,0.0174,0.0157,0.0156,0.017,0.017,0.017,0,0,0.0562,0.0533,0.0518,0.0473,0.0449,0.0423,0.0414,0.0387,0.0367,0.0344,0.0312,0.0291,0.0258,0.0226,0.021,0.0208,0.0169,0.0176,0.0176,0.0173,0.0156,0.0155,0.0154,0.017,0.017,0.017,0,0,0.055,0.0526,0.0502,0.0479,0.0444,0.0423,0.0418,0.0379,0.0364,0.0331,0.0314,0.0291,0.0243,0.022,0.0202,0.0184,0.0172,0.0176,0.0176,0.016,0.0159,0.0157,0.0151,0.0149,0.0174,0.0174,0.0174,0,0.0556,0.0515,0.0491,0.0465,0.0445,0.0425,0.0401,0.038,0.0337,0.0325,0.0323,0.0264,0.0239,0.0202,0.0198,0.0184,0.0177,0.018,0.0161,0.0159,0.0158,0.0151,0.0149,0.0175,0.0175,0.0175,0.0175,0,0.0524,0.0497,0.0482,0.0442,0.0421,0.0396,0.0368,0.0351,0.0337,0.0317,0.0284,0.0255,0.0221,0.0211,0.0197,0.0172,0.0172,0.0166,0.0164,0.0158,0.0151,0.0148,0.0176,0.0176,0.0175,0.0175,0,0,0.0521,0.047,0.0464,0.0446,0.0407,0.0386,0.0361,0.0328,0.0313,0.0286,0.0264,0.0225,0.022,0.0199,0.0183,0.0169,0.0157,0.0165,0.0163,0.0164,0.0129,0.0132,0.013,0.015,0.0149,0.0149,0.0131,0,0.0503,0.0457,0.0435,0.0398,0.0373,0.0355,0.0333,0.0307,0.0288,0.0264,0.0244,0.0216,0.0212,0.0199,0.0185,0.0162,0.015,0.0163,0.0129,0.0128,0.0137,0.0127,0.013,0.0115,0.0129,0.0128,0.0128,0,0.0476,0.0449,0.041,0.0375,0.0364,0.0344,0.0313,0.0291,0.0262,0.0249,0.0228,0.0213,0.0186,0.0187,0.015,0.016,0.0145,0.0132,0.0131,0.0126,0.0126,0.012,0.0109,0.0107,0.0124,0.0124,0.0124,0,0.0477,0.0431,0.0402,0.0387,0.0346,0.0333,0.0316,0.0287,0.0269,0.0243,0.0231,0.0202,0.0185,0.0163,0.0141,0.0143,0.0107,0.0105,0.0095,0.0096,0.0087,0.0087,0.0072,0.0079,0.0079,0.0079,0.0079,0,0.0459,0.0435,0.0402,0.0383,0.0357,0.0334,0.0309,0.029,0.0265,0.0243,0.0226,0.0206,0.0178,0.0155,0.0138,0.011,0.0103,0.0093,0.0088,0.0093,0.0095,0.0082,0.0082,0.0079,0.0079,0.0079,0.0079,0,0.0454,0.0431,0.0398,0.0363,0.0353,0.0336,0.0305,0.0288,0.0269,0.0242,0.0235,0.0205,0.0177,0.0154,0.0117,0.0105,0.0077,0.0072,0.0086,0.0083,0.0075,0.0076,0.005,0.0046,0.0057,0.0057,0.0057,0,0.0443,0.0425,0.0388,0.0373,0.0356,0.0331,0.0313,0.029,0.0272,0.0239,0.0226,0.0197,0.0172,0.0129,0.0104,0.0077,0.007,0.0064,0.0066,0.0072,0.0069,0.007,0.0068,0.0063,0.0063,0.0063,0.0063,0,0.0426,0.0416,0.0391,0.0363,0.0342,0.0319,0.0294,0.0283,0.0256,0.0237,0.0209,0.019,0.0153,0.0125,0.0095,0.0077,0.0065,0.0063,0.0059,0.0063,0.0072,0.0067,0.0085,0.0063,0.0063,0.0063,0.0063,0.0063,0.0417,0.0401,0.0373,0.0346,0.0326,0.0304,0.0286,0.0266,0.0242,0.0211,0.0199,0.017,0.0144,0.0102,0.0085,0.0062,0.006,0.0055,0.0053,0.0052,0.0053,0.0078,0.0057,0.0057,0.0057,0.0057,0.0057,0,0.0399,0.038,0.0356,0.0324,0.0303,0.0296,0.0269,0.0252,0.0227,0.0204,0.018,0.0149,0.0122,0.0097,0.0068,0.0055,0.005,0.0049,0.0049,0.0045,0.0056,0.0062,0.0054,0.0054,0.0054,0.0054,0.0054,0.0054,0.0386,0.0358,0.0345,0.0307,0.0289,0.0261,0.0247,0.0227,0.0208,0.0174,0.0151,0.0136,0.0111,0.0082,0.0057,0.0051,0.0041,0.0041,0.0033,0.0044,0.0044,0.0045,0.005,0.004,0.004,0.0024,0.0024,0.0024]}]]